Vorticity
nan nan nan nan nan nan nan nan nan nan nan nan nan nan nan nan nan nan nan nan nan nan nan nan nan nan nan nan nan nan nan nan nan nan nan nan nan nan nan nan nan nan nan nan
nan 11 10 10 8 6 6 5 7 9 17 8 10 13 11 12 9 9 7 9 8 8 9 11 11 11 10 7 5 8 8 8 6 7 8 9 10 9 8 10 11 9 8 nan
nan 7 12 7 7 9 7 8 9 6 9 7 11 11 10 10 12 10 7 9 10 8 8 9 11 8 7 10 10 7 8 7 7 6 7 8 8 7 9 10 10 11 8 nan
nan 10 8 8 8 7 6 11 6 6 9 10 8 12 5 13 9 8 8 5 9 9 7 9 8 11 8 6 7 9 10 8 8 7 7 8 7 7 8 8 11 11 10 nan
nan 9 8 8 11 7 8 8 10 14 10 9 6 13 7 8 13 13 10 7 9 9 8 10 9 7 7 13 9 7 7 7 8 7 7 7 9 9 10 10 11 9 9 nan
nan 7 12 9 9 6 9 9 9 13 9 8 13 7 8 9 8 10 13 10 9 9 8 10 12 10 9 7 9 10 7 8 8 8 8 8 8 7 8 9 8 9 8 nan
nan 12 10 10 6 8 10 7 7 7 12 6 8 9 10 8 10 10 13 11 8 8 9 11 12 9 8 7 6 7 8 9 9 8 8 9 9 8 8 7 7 7 7 nan
nan 11 14 8 10 10 7 8 8 11 6 9 8 6 10 8 10 13 8 14 14 8 9 9 10 10 10 9 8 7 6 9 12 9 9 8 8 10 9 8 8 8 9 nan
nan 7 11 10 11 10 8 9 9 5 9 14 4 6 10 9 8 11 14 14 11 8 9 9 8 10 11 11 11 8 6 8 10 8 8 9 9 10 10 8 7 9 9 nan
nan 12 10 10 8 7 14 7 6 9 14 7 7 11 10 7 11 8 12 10 10 11 9 8 9 11 12 11 11 11 10 10 8 9 8 9 9 8 9 10 9 8 8 nan
nan 8 7 11 13 6 4 6 11 15 9 10 9 9 13 9 11 8 8 13 10 11 11 10 9 12 12 12 12 10 10 9 8 8 8 10 10 9 9 9 9 8 10 nan
nan 6 15 5 3 11 13 10 6 8 9 8 10 9 14 12 6 7 14 14 12 12 11 12 12 11 10 9 10 9 9 10 9 9 10 9 8 9 9 9 9 9 9 nan
nan 4 5 9 13 16 13 11 7 6 16 14 4 5 6 13 11 8 12 13 11 10 12 12 13 10 8 8 10 11 11 9 9 10 8 9 9 8 8 10 9 9 9 nan
nan 14 13 10 6 5 9 9 9 7 8 13 4 9 7 11 9 11 12 10 9 9 7 8 10 9 11 11 8 13 18 12 12 13 11 9 9 10 10 9 10 11 11 nan
nan 9 9 9 12 10 11 12 9 4 8 5 12 9 9 14 16 12 9 9 10 8 8 8 8 10 9 10 10 7 6 14 11 14 11 10 10 11 11 10 10 10 10 nan
nan 12 9 9 14 14 9 11 10 8 8 8 13 9 12 11 16 15 12 8 7 7 8 9 10 12 12 9 7 7 5 9 9 6 5 11 10 7 9 10 9 9 9 nan
nan 12 9 8 9 9 11 15 9 10 8 12 8 10 8 13 13 12 11 9 10 11 10 11 10 11 11 9 7 6 7 8 11 3 8 8 9 10 11 10 10 10 8 nan
nan 8 11 11 10 10 5 11 16 13 8 7 7 14 10 11 10 13 13 12 11 13 15 12 11 12 13 9 10 10 11 11 9 9 10 10 10 10 8 9 10 8 9 nan
nan 11 12 12 8 5 9 12 14 11 12 12 7 11 14 11 7 4 11 14 15 13 13 11 13 12 13 12 10 8 11 13 14 11 9 11 10 9 8 11 10 8 8 nan
nan 11 12 11 11 10 8 7 9 7 11 14 12 14 13 9 7 6 8 13 17 18 11 12 11 13 10 3 13 16 13 9 9 11 10 10 10 10 11 10 8 8 9 nan
nan 14 11 9 7 10 17 9 10 12 10 10 14 13 12 9 12 14 10 10 14 20 18 13 9 8 8 8 7 10 8 10 9 12 12 11 11 10 9 11 11 10 9 nan
nan 10 8 9 9 10 11 15 12 4 11 11 13 10 9 14 12 9 10 9 12 14 15 12 11 8 4 7 7 14 9 10 12 10 9 9 10 10 11 11 8 10 9 nan
nan 12 12 11 6 9 7 6 7 12 12 8 5 13 16 5 8 10 9 10 11 7 6 11 11 5 11 19 15 11 11 10 9 10 10 9 10 11 12 9 7 8 9 nan
nan 13 6 6 11 10 9 13 12 9 10 8 9 12 6 16 25 7 9 7 7 10 12 10 10 10 9 12 13 14 12 10 11 9 8 10 10 8 8 9 10 10 8 nan
nan 9 10 5 9 14 11 11 12 13 13 9 12 14 13 20 15 14 14 8 9 11 10 14 12 8 8 12 13 11 11 11 10 10 9 9 9 9 8 10 12 9 9 nan
nan nan nan nan nan nan nan nan nan nan nan nan nan nan nan nan nan nan nan nan nan nan nan nan nan nan nan nan nan nan nan nan nan nan nan nan nan nan nan nan nan nan nan nan
CAPE
0 0 0 0 0 0 0 0 0 0 0 67 163 124 3 237 88 24 188 327 195 217 128 0 0 7 0 0 31 42 48 43 111 328 428 563 812 808 785 906 743 623 300 241
0 0 0 0 0 0 0 0 0 0 0 13 0 3 75 331 241 45 273 295 428 382 98 77 0 1 43 41 28 80 146 179 313 418 721 878 772 650 497 287 249 294 575 545
0 0 0 0 0 0 0 0 0 0 0 0 0 0 7 401 503 243 197 107 257 361 44 243 13 17 62 98 54 46 189 309 492 610 683 897 542 481 417 415 422 404 452 171
0 0 0 0 0 0 0 0 0 0 0 0 0 0 0 16 250 333 250 108 55 102 24 66 96 48 50 78 85 63 28 72 586 833 885 853 777 704 483 294 127 180 239 131
0 0 0 0 0 0 0 0 0 0 0 0 0 0 0 124 203 117 213 146 10 10 0 0 252 150 55 65 64 27 0 0 0 1001 1049 726 721 510 614 443 551 276 189 423
0 0 0 0 0 0 0 0 0 0 0 0 0 0 0 0 50 213 122 91 35 19 33 0 128 241 183 197 175 169 48 17 3 181 1185 1087 963 825 414 348 258 134 20 11
0 0 0 0 0 0 0 0 0 0 0 0 0 0 0 0 0 120 194 123 45 4 3 21 255 356 275 266 299 365 253 249 138 481 1064 1141 1042 852 282 104 4 0 0 0
0 0 0 0 0 0 0 0 0 0 0 0 0 0 0 0 0 0 64 217 105 0 0 87 256 481 400 402 405 532 411 566 762 771 1297 1085 845 700 240 23 0 0 0 0
0 0 0 0 0 0 0 0 0 0 0 0 0 0 0 0 0 0 0 252 151 2 0 1 162 419 653 578 684 747 559 946 1096 1252 1158 990 1103 669 270 6 0 0 0 1
0 0 0 0 0 0 0 0 0 0 0 0 0 0 0 0 0 0 0 0 177 45 0 0 0 460 1080 973 1189 1291 1070 1170 1466 1515 1380 1233 966 372 0 0 0 0 0 147
0 0 0 0 0 0 0 0 0 0 0 0 0 0 0 0 0 1 0 11 59 156 85 2 15 1080 1590 1844 1986 1861 1671 1593 1613 1577 1386 882 368 0 0 0 0 0 21 18
0 0 0 0 0 0 0 0 0 0 0 0 0 0 0 0 0 0 47 122 150 310 317 252 707 1404 1801 1993 2075 2100 1945 1925 1813 1669 1192 721 168 0 0 0 0 36 40 28
0 0 0 0 0 0 0 0 0 0 0 0 0 0 0 0 0 3 91 556 521 637 865 1072 1198 1536 1815 1981 2061 2095 1954 1891 1697 1294 1039 313 36 0 0 5 118 105 126 59
0 0 0 0 0 0 0 0 0 0 0 0 0 0 0 0 0 1 174 566 680 901 130 807 1160 1528 1719 1920 1945 1841 1649 1608 1118 739 574 83 0 4 20 199 240 195 54 0
0 0 0 0 0 0 0 0 0 0 0 0 0 0 0 0 0 0 214 479 580 744 462 6 711 1270 1673 1763 827 567 339 122 26 50 39 83 62 176 261 229 124 3 0 0
0 0 0 0 0 0 0 0 0 0 0 0 0 0 0 0 0 138 365 410 565 508 606 835 792 1239 1712 1422 622 115 101 0 118 0 209 259 296 209 240 84 1 0 0 0
0 0 0 0 0 0 0 0 0 0 0 0 0 0 0 0 0 84 334 462 443 398 341 806 1169 1254 1537 1053 517 32 0 0 55 0 43 286 177 164 28 1 0 0 0 0
7 0 0 27 0 3 0 0 0 0 0 0 37 0 0 0 0 56 114 262 386 224 191 840 1204 1293 1101 1005 640 252 100 2 44 65 323 229 231 25 0 0 0 0 0 0
0 0 0 54 3 1 0 3 24 0 0 438 221 32 0 0 19 495 1012 1081 583 120 0 136 1203 1099 854 608 475 205 247 206 295 334 238 178 69 0 0 0 0 0 0 0
0 0 0 0 13 3 0 23 40 5 0 650 492 0 0 6 0 0 831 1199 1118 76 62 449 1052 806 567 185 27 33 159 294 375 329 103 78 3 0 0 0 1 0 0 0
0 0 0 0 0 0 0 36 32 0 0 513 263 225 4 5 0 697 1151 967 1067 1097 500 1261 976 581 321 151 120 74 113 273 31 0 0 0 0 0 0 0 0 0 0 0
0 0 0 0 0 0 0 142 118 0 430 671 420 76 886 1046 1258 1169 1359 1306 1031 786 1013 899 552 544 25 20 67 188 89 1 0 0 0 0 0 0 0 0 0 0 0 0
0 0 0 0 0 0 0 14 23 31 301 739 320 383 1057 1474 1508 1260 910 870 886 572 531 555 286 92 2 90 140 5 0 0 0 0 0 0 0 0 0 0 0 0 0 0
0 0 0 2 0 1 0 1 0 68 238 447 254 222 68 433 1453 1420 982 755 419 223 213 166 44 1 1 0 0 0 0 0 0 0 0 0 0 0 0 0 0 0 0 0
0 0 0 0 0 0 0 0 0 4 18 58 178 16 0 98 1199 1068 527 578 407 135 18 29 1 0 1 0 0 0 0 0 0 0 0 0 0 0 0 0 0 0 0 0
0 0 0 0 0 0 0 0 0 1 14 28 69 166 406 832 897 626 310 284 114 5 0 0 0 0 0 0 0 0 0 0 0 0 0 0 0 0 0 0 0 0 0 0